Tiangong 1 - Orbit

View from above orbital plane
View from above orbital plane
View from above satellite
View from above satellite

Ground track
Ground track

The orbit data is extracted from the following two-line orbital elements,

1 37820U 11053A   13144.49447450  .00067030  00000-0  38205-3 0  8839
2 37820 042.7774 144.4493 0005642 249.0166 249.0442 15.78002155 94908
Epoch (UTC): 24 May 2013 11:52:02
Eccentricity: 0.0005642
inclination: 42.7774°
perigee height: 332 km
apogee height: 340 km
right ascension of ascending node: 144.4493°
argument of perigee: 249.0166°
revolutions per day: 15.78002155
mean anomaly at epoch: 249.0442°
orbit number at epoch: 9490

The dashed part of the orbit path shows where the satellite is in the earth's shadow,  

Developed and maintained by Chris Peat, Heavens-Above GmbH. Please read the updated FAQ before sending e-mail. Imprint. DLR